Tracking 29892 objects as of 21-Nov-2024
HD Live streaming from Space Station
objects crossing your sky now

THORAD AGENA D DEB

Track THORAD AGENA D DEB now!
10-day predictions


NORAD ID: 42510
Int'l Code: 1970-025RQ
Perigee: 966.7 km
Apogee: 970.6 km
Inclination: 100.0 °
Period: 104.3 minutes
Semi major axis: 7339 km
RCS: Unknown
Launch date: April 8, 1970
Source: United States (US)
Launch site: AIR FORCE WESTERN TEST RANGE (AFWTR)

Note: This is SATELLITE DEBRIS
Your satellite tracking list
Your tracking list is empty




NASA's NSSDC Master Catalog

Two Line Element Set (TLE):
1 42510U 70025RQ  24323.13170318  .00001985  00000-0  19364-2 0  9992
2 42510 100.0147 287.3439 0002614 104.9616 315.7469 13.80669065552790
Source of the keplerian elements: AFSPC